Vorticity
-1 8 10 4 3 6 10 -0 -8 8 -3 12 5 1 4 4 2 7 6 10 4 6 8 13 5 4 7 2 7 9 12 6 8 6 6 4 6 12
11 7 15 -3 7 9 6 -6 30 8 4 3 4 2 8 5 5 4 12 3 7 7 12 7 0 12 3 6 12 8 5 7 5 5 5 7 13 16
5 -0 3 -5 6 7 -6 -9 14 1 -3 4 -0 11 17 5 -1 2 10 4 3 11 10 0 6 7 7 9 8 5 5 4 5 7 9 13 15 12
8 18 -3 11 3 -16 14 31 0 0 -1 -5 12 29 5 10 3 7 2 5 11 11 16 13 3 8 11 9 7 4 5 11 7 11 12 13 12 10
16 7 19 9 21 17 4 -5 -3 8 -1 11 33 1 3 24 -7 9 10 14 9 3 3 3 12 8 6 4 9 9 8 9 10 11 10 7 4 2
-1 -6 18 6 5 -3 2 1 34 27 24 18 -0 2 9 3 4 13 8 1 7 9 10 9 6 7 10 12 5 4 8 9 7 6 3 1 2 7
-3 9 14 3 23 5 25 35 19 -7 -4 16 9 3 8 9 16 13 3 16 10 9 5 7 7 10 10 6 6 7 7 8 9 10 15 24 29 28
86 69 50 27 40 -8 -1 27 -1 4 15 2 5 8 12 9 11 -1 6 11 3 7 11 9 4 4 9 11 10 12 14 14 17 25 28 26 29 30
6 15 19 2 23 14 3 15 -13 20 4 7 9 7 5 4 8 10 10 12 9 8 5 6 4 5 12 12 16 20 17 23 25 25 25 23 21 16
-38 0 10 12 39 48 -9 11 15 3 12 6 6 9 11 10 11 8 10 6 4 4 6 4 6 10 13 28 23 21 21 21 21 21 18 14 12 12
34 3 11 8 31 8 20 7 19 4 5 7 11 9 11 11 11 8 3 3 5 6 6 7 11 14 24 33 24 18 17 21 18 13 11 11 13 14
-6 42 7 27 11 9 6 14 5 5 9 8 10 13 8 8 4 3 1 1 9 -1 4 8 19 18 31 26 23 18 16 11 12 13 15 15 15 13
30 -17 6 23 14 14 9 3 3 9 13 12 13 3 7 3 0 3 8 2 -2 3 7 7 32 33 23 22 24 14 10 13 16 16 16 15 14 14
2 12 28 16 8 4 6 8 11 9 10 6 6 6 4 0 3 -1 0 3 7 7 17 26 35 19 19 17 12 15 16 20 18 17 17 16 13 10
16 23 8 5 3 6 10 10 9 5 5 7 4 3 1 2 -0 3 1 0 18 17 24 24 19 19 13 12 20 20 21 18 17 16 16 12 10 14
12 8 3 1 8 13 12 10 6 2 5 4 2 1 0 2 5 -1 -3 10 27 26 21 17 18 12 17 23 24 18 15 17 18 14 6 10 14 11
8 7 4 9 6 8 8 6 8 5 5 4 2 1 3 3 -2 4 4 17 26 29 19 15 11 18 23 24 14 13 13 15 8 8 11 18 12 12
7 4 2 4 11 9 4 7 4 5 3 3 -0 2 2 4 5 1 10 29 29 22 15 13 17 26 21 14 12 13 12 7 12 17 16 16 12 8
8 6 5 10 6 6 5 3 4 6 2 -1 3 4 1 5 1 7 28 31 21 16 17 19 26 22 13 14 15 9 8 12 17 17 12 18 9 10
4 4 0 2 9 6 3 3 9 3 -1 2 5 1 4 2 11 26 28 22 15 19 26 22 16 11 13 15 7 7 8 12 17 15 13 19 8 7
10 0 4 -1 4 6 6 11 5 -4 2 4 2 5 2 14 24 22 21 17 19 23 24 14 10 10 14 7 8 12 13 9 13 15 9 12 15 9
1 1 2 7 5 8 6 6 -3 0 6 5 1 4 13 20 23 20 19 20 20 20 17 12 9 14 8 8 11 11 14 16 11 14 11 10 12 12
2 6 5 11 2 10 8 2 4 8 3 -1 6 12 19 23 20 20 19 18 20 15 16 7 14 10 8 10 9 14 17 18 15 14 11 11 11 12
Height
5760 5760 5762 5762 5762 5762 5760 5758 5757 5755 5753 5752 5750 5748 5745 5742 5738 5735 5731 5727 5724 5719 5715 5711 5704 5699 5694 5689 5683 5677 5671 5668 5663 5658 5652 5647 5642 5638
5748 5748 5749 5748 5748 5747 5746 5746 5743 5742 5740 5739 5737 5735 5732 5729 5725 5722 5718 5714 5710 5705 5700 5697 5692 5685 5679 5674 5669 5664 5658 5652 5645 5640 5634 5628 5622 5618
5736 5735 5735 5735 5734 5733 5731 5730 5728 5727 5725 5724 5724 5722 5719 5716 5712 5708 5704 5700 5696 5691 5685 5682 5675 5669 5664 5658 5652 5646 5641 5635 5628 5621 5614 5607 5602 5598
5720 5720 5719 5720 5722 5721 5718 5716 5715 5713 5712 5709 5709 5706 5705 5702 5699 5695 5690 5685 5681 5675 5670 5666 5658 5653 5646 5640 5634 5628 5622 5613 5606 5599 5592 5587 5581 5576
5708 5705 5704 5707 5706 5705 5703 5702 5700 5698 5697 5695 5693 5693 5692 5689 5686 5681 5676 5669 5664 5661 5654 5648 5640 5633 5627 5620 5614 5606 5599 5591 5583 5576 5570 5564 5558 5553
5694 5692 5691 5692 5690 5690 5691 5689 5689 5686 5682 5680 5680 5678 5677 5674 5670 5666 5661 5657 5650 5645 5639 5632 5624 5615 5607 5599 5591 5582 5574 5566 5559 5552 5545 5538 5531 5524
5681 5678 5678 5678 5681 5681 5680 5678 5676 5673 5671 5670 5668 5666 5664 5660 5656 5651 5647 5643 5635 5630 5623 5612 5606 5596 5587 5577 5568 5557 5548 5539 5531 5524 5514 5505 5496 5488
5673 5668 5669 5670 5672 5669 5668 5665 5664 5663 5662 5661 5656 5653 5650 5647 5643 5639 5634 5628 5624 5613 5610 5598 5588 5577 5567 5556 5543 5531 5521 5511 5501 5490 5481 5472 5466 5459
5658 5659 5659 5660 5657 5656 5656 5655 5655 5654 5651 5649 5646 5643 5639 5635 5631 5624 5618 5612 5604 5596 5590 5585 5570 5560 5547 5531 5516 5503 5492 5482 5471 5462 5454 5448 5443 5438
5647 5649 5648 5647 5644 5645 5645 5643 5643 5643 5641 5639 5634 5630 5625 5621 5616 5610 5603 5596 5587 5577 5569 5565 5551 5543 5527 5507 5490 5476 5466 5458 5448 5441 5433 5428 5424 5419
5637 5637 5635 5635 5636 5635 5633 5633 5633 5632 5630 5626 5622 5619 5613 5607 5602 5596 5588 5580 5573 5561 5549 5540 5530 5519 5503 5488 5471 5457 5446 5438 5431 5425 5418 5412 5407 5400
5625 5625 5625 5625 5625 5623 5622 5620 5621 5620 5617 5613 5609 5605 5600 5595 5588 5579 5571 5561 5552 5543 5528 5519 5500 5485 5486 5473 5458 5442 5433 5424 5417 5411 5404 5397 5389 5383
5614 5613 5613 5612 5613 5612 5609 5608 5609 5607 5603 5599 5597 5591 5586 5578 5571 5562 5553 5543 5534 5519 5501 5490 5479 5464 5454 5451 5445 5431 5420 5414 5406 5399 5392 5383 5375 5367
5602 5602 5600 5599 5600 5602 5600 5599 5595 5594 5591 5588 5585 5579 5572 5563 5555 5547 5537 5525 5508 5494 5479 5466 5457 5446 5439 5433 5427 5418 5407 5400 5392 5387 5381 5373 5365 5357
5592 5590 5588 5589 5591 5591 5590 5588 5585 5582 5579 5577 5572 5564 5556 5549 5541 5531 5518 5504 5487 5469 5458 5448 5439 5432 5422 5415 5411 5403 5396 5391 5382 5375 5370 5364 5356 5349
5580 5580 5579 5580 5579 5580 5579 5576 5573 5571 5569 5564 5557 5550 5544 5535 5524 5513 5499 5484 5469 5453 5438 5431 5424 5418 5410 5400 5394 5390 5382 5378 5373 5366 5361 5354 5345 5338
5571 5570 5570 5570 5570 5568 5566 5564 5563 5560 5556 5550 5544 5539 5530 5519 5506 5492 5479 5466 5454 5443 5431 5419 5410 5404 5395 5389 5385 5377 5374 5368 5361 5355 5350 5345 5336 5331
5561 5561 5560 5560 5558 5556 5555 5554 5551 5547 5542 5537 5531 5524 5513 5500 5487 5473 5462 5451 5438 5428 5419 5410 5403 5395 5387 5380 5370 5369 5365 5359 5354 5346 5339 5336 5332 5323
5551 5550 5550 5549 5548 5547 5545 5542 5539 5534 5530 5524 5516 5506 5495 5482 5471 5460 5447 5435 5425 5415 5406 5398 5391 5385 5381 5377 5370 5357 5358 5351 5346 5339 5333 5327 5323 5318
5540 5541 5540 5539 5538 5536 5533 5530 5525 5521 5516 5508 5499 5489 5479 5469 5457 5444 5432 5423 5414 5406 5396 5387 5381 5377 5372 5368 5365 5357 5345 5345 5340 5334 5328 5322 5316 5310
5530 5530 5529 5528 5527 5524 5521 5517 5514 5508 5501 5492 5482 5473 5464 5454 5441 5429 5421 5411 5404 5396 5388 5382 5375 5369 5364 5360 5355 5349 5340 5332 5330 5327 5322 5318 5312 5306
5519 5519 5518 5517 5514 5511 5508 5505 5500 5493 5485 5477 5468 5459 5448 5438 5427 5418 5409 5400 5392 5386 5381 5375 5369 5363 5357 5352 5348 5341 5336 5330 5321 5317 5313 5310 5306 5302
5508 5507 5506 5504 5502 5499 5495 5491 5486 5479 5471 5463 5453 5443 5434 5423 5414 5406 5398 5389 5383 5378 5373 5370 5363 5357 5351 5345 5339 5334 5327 5322 5317 5312 5305 5302 5298 5293